#�ϑ�����,���ϕ���,���ϕ���,�ő啗��,�ő啗����������,�ő�u�ԕ���,�ő�u�ԕ�����������
#(�N����),(m/s)   ,(16����),(m/s)   ,(16����)        ,(m/s)       ,(16����)            
2013/1/10 0:01,1.3,14,1.4,12,2.2,14
2013/1/10 0:02,1.3,13,1.3,13,1.5,12
2013/1/10 0:03,1.2,13,1.2,14,3,1
2013/1/10 0:04,1.3,13,1.3,14,2.6,16
2013/1/10 0:05,1.2,13,1.3,14,3.2,12
2013/1/10 0:06,1.2,13,1.2,14,3.3,9
2013/1/10 0:07,1.4,13,1.4,14,3.9,11
2013/1/10 0:08,1.3,14,1.4,14,3.1,10
2013/1/10 0:09,1.3,14,1.3,14,1.6,16
2013/1/10 0:10,1.3,14,1.3,14,1.5,15
2013/1/10 0:11,1.3,14,1.3,13,2.5,1
2013/1/10 0:12,1.4,14,1.4,13,3.1,16
2013/1/10 0:13,1.3,14,1.4,13,1.3,13
2013/1/10 0:14,1.2,14,1.3,13,2.1,14
2013/1/10 0:15,1.3,14,1.3,13,2.1,10
2013/1/10 0:16,1.2,14,1.3,13,2.5,8
2013/1/10 0:17,1.3,14,1.3,13,8.1,12
2013/1/10 0:18,1.7,14,1.7,14,7.7,11
2013/1/10 0:19,1.9,13,1.9,13,4.5,11
2013/1/10 0:20,1.9,13,1.9,13,1.9,10
2013/1/10 0:21,2.1,12,2.1,12,4.5,9
2013/1/10 0:22,2.2,12,2.2,12,4.7,9
2013/1/10 0:23,2.3,12,2.3,12,3.6,11
2013/1/10 0:24,2.4,11,2.4,11,4.3,9
2013/1/10 0:25,2.7,12,2.7,12,7,11
2013/1/10 0:26,3,12,3,12,7.7,12
2013/1/10 0:27,3.1,12,3.2,12,9.4,10
2013/1/10 0:28,3,11,3.1,12,5.5,10
2013/1/10 0:29,3.1,11,3.1,12,4.7,13
2013/1/10 0:30,3.2,12,3.2,12,3.8,13
2013/1/10 0:31,3.2,12,3.3,12,2.2,11
2013/1/10 0:32,3.1,12,3.1,12,3.3,10
2013/1/10 0:33,3.1,11,3.1,12,3.9,8
2013/1/10 0:34,3.1,11,3.1,12,5.8,12
2013/1/10 0:35,3.2,11,3.2,12,7.8,9
2013/1/10 0:36,3.1,11,3.2,12,5.6,10
2013/1/10 0:37,3,11,3,12,6.7,10
2013/1/10 0:38,3,11,3,12,5.7,9
2013/1/10 0:39,2.9,10,3,12,4.8,9
2013/1/10 0:40,2.9,10,2.9,12,4.4,11
2013/1/10 0:41,2.9,10,2.9,11,4.1,8
2013/1/10 0:42,2.8,10,2.9,11,3.7,8
2013/1/10 0:43,2.9,10,2.9,11,4.8,9
2013/1/10 0:44,2.9,10,2.9,11,4.4,10
2013/1/10 0:45,2.7,10,2.9,11,5.4,10
2013/1/10 0:46,2.7,10,2.7,11,4.3,11
2013/1/10 0:47,2.4,11,2.6,11,2.6,10
2013/1/10 0:48,2.3,11,2.3,11,5.4,13
2013/1/10 0:49,2.3,11,2.3,10,6.4,13
2013/1/10 0:50,2.4,11,2.4,10,6.7,13
2013/1/10 0:51,2.3,11,2.4,10,1.9,13
2013/1/10 0:52,2.4,11,2.4,10,3.3,11
2013/1/10 0:53,2.5,11,2.5,10,4.7,10
2013/1/10 0:54,2.5,11,2.5,10,5.8,7
2013/1/10 0:55,2.6,11,2.6,10,7.2,10
2013/1/10 0:56,2.5,11,2.6,10,4.2,11
2013/1/10 0:57,2.6,11,2.6,11,6.5,9
2013/1/10 0:58,2.5,11,2.6,11,4.7,10
2013/1/10 0:59,2.4,11,2.5,11,3.5,12
2013/1/10 1:00,2.5,11,2.5,11,6.1,10
2013/1/10 1:01,2.8,11,2.8,11,6.1,10
2013/1/10 1:02,2.8,11,2.8,11,4.3,10
2013/1/10 1:03,2.7,11,2.8,11,3.1,9
2013/1/10 1:04,2.6,11,2.7,11,2.5,12
2013/1/10 1:05,2.3,11,2.5,11,1.1,2
2013/1/10 1:06,2.2,11,2.2,11,2.1,1
2013/1/10 1:07,2,12,2.1,11,1.8,16
2013/1/10 1:08,1.9,12,2,11,1.6,13
2013/1/10 1:09,1.8,12,1.9,11,2,12
2013/1/10 1:10,1.6,12,1.8,11,2.6,13
2013/1/10 1:11,1.3,13,1.6,11,1.8,13
2013/1/10 1:12,1.3,13,1.3,11,2.6,13
2013/1/10 1:13,1.2,14,1.3,11,2,14
2013/1/10 1:14,1.2,14,1.2,11,1.4,1
2013/1/10 1:15,1.2,14,1.2,11,1.4,4
2013/1/10 1:16,1.1,14,1.2,12,0.8,15
2013/1/10 1:17,1,14,1.1,12,0.6,14
2013/1/10 1:18,1.1,14,1.1,12,3.5,10
2013/1/10 1:19,1.1,14,1.1,12,3,9
2013/1/10 1:20,1.1,14,1.1,12,2.2,14
2013/1/10 1:21,1.1,14,1.1,13,3.9,13
2013/1/10 1:22,1,14,1.1,13,2.5,16
2013/1/10 1:23,0.9,14,1,14,1.6,16
2013/1/10 1:24,1,14,1,14,2,15
2013/1/10 1:25,1.1,14,1.1,14,2.5,15
2013/1/10 1:26,1.2,14,1.2,14,2.9,1
2013/1/10 1:27,1.4,14,1.4,14,3.1,16
2013/1/10 1:28,1.3,14,1.4,14,1,12
2013/1/10 1:29,1.2,14,1.3,14,3.5,15
2013/1/10 1:30,1.5,15,1.5,15,5.7,15
2013/1/10 1:31,1.7,15,1.7,15,6.7,16
2013/1/10 1:32,2,15,2,15,7,15
2013/1/10 1:33,2.1,15,2.1,15,3.1,16
2013/1/10 1:34,2.1,15,2.1,15,3.1,14
2013/1/10 1:35,2.1,15,2.1,15,3,13
2013/1/10 1:36,2.2,15,2.2,15,4.5,14
2013/1/10 1:37,2.3,15,2.3,15,5,15
2013/1/10 1:38,2.4,15,2.4,15,2.2,14
2013/1/10 1:39,2.4,14,2.5,15,3.1,11
2013/1/10 1:40,2.1,14,2.4,15,1.8,12
2013/1/10 1:41,1.9,14,2.1,15,2.5,16
2013/1/10 1:42,1.7,14,1.8,15,4.7,15
2013/1/10 1:43,2,14,2,15,5.1,14
2013/1/10 1:44,2.2,14,2.2,15,6,15
2013/1/10 1:45,2.3,14,2.3,15,4.4,13
2013/1/10 1:46,2.3,14,2.3,15,4.3,12
2013/1/10 1:47,2.4,14,2.4,15,6.2,13
2013/1/10 1:48,2.7,14,2.7,14,7.1,12
2013/1/10 1:49,3.1,14,3.1,14,9.4,13
2013/1/10 1:50,3.6,14,3.6,14,8.2,13
2013/1/10 1:51,4.2,13,4.2,13,10,13
2013/1/10 1:52,4.4,13,4.4,13,7.5,12
2013/1/10 1:53,4.6,13,4.6,13,10.1,12
2013/1/10 1:54,4.7,13,4.7,13,6.8,13
2013/1/10 1:55,4.7,13,4.7,13,6,13
2013/1/10 1:56,4.8,13,4.8,13,5.1,11
2013/1/10 1:57,5,13,5,13,9.9,12
2013/1/10 1:58,5.2,13,5.2,13,8.4,13
2013/1/10 1:59,5.2,13,5.2,13,7.6,14
2013/1/10 2:00,5,13,5.2,13,7,12
2013/1/10 2:01,4.7,13,5,13,7.9,14
2013/1/10 2:02,4.6,13,4.7,13,8.7,11
2013/1/10 2:03,4.4,13,4.6,13,7,12
2013/1/10 2:04,4.3,13,4.4,13,6.5,12
2013/1/10 2:05,4.2,13,4.3,13,5.8,12
2013/1/10 2:06,4.2,13,4.2,13,5.5,13
2013/1/10 2:07,4,13,4.2,13,7,11
2013/1/10 2:08,3.8,13,4,13,9.8,13
2013/1/10 2:09,3.4,13,3.7,13,8.4,13
2013/1/10 2:10,3.2,13,3.4,13,3.2,11
2013/1/10 2:11,3.1,13,3.2,13,4.4,13
2013/1/10 2:12,3.2,13,3.2,13,8.1,12
2013/1/10 2:13,3.2,13,3.2,13,10.2,11
2013/1/10 2:14,3.7,13,3.7,13,10.6,13
2013/1/10 2:15,3.8,13,3.8,13,11.6,12
2013/1/10 2:16,4.1,13,4.1,13,11.8,11
2013/1/10 2:17,4,13,4.1,13,7.2,15
2013/1/10 2:18,3.9,13,4.1,13,6,13
2013/1/10 2:19,4.2,13,4.2,13,9.7,12
2013/1/10 2:20,4.3,13,4.3,13,5.4,12
2013/1/10 2:21,4.5,13,4.5,13,6.1,12
2013/1/10 2:22,4.3,13,4.4,13,8.4,14
2013/1/10 2:23,4.2,13,4.4,13,7.9,13
2013/1/10 2:24,3.8,13,4.2,13,10.2,10
2013/1/10 2:25,3.7,12,3.9,13,11.7,11
2013/1/10 2:26,3.5,12,3.6,13,4.7,12
2013/1/10 2:27,3.7,12,3.8,13,8.4,12
2013/1/10 2:28,3.7,12,3.7,13,6,11
2013/1/10 2:29,3.6,12,3.8,13,8.4,11
2013/1/10 2:30,3.8,12,3.8,13,6.2,12
2013/1/10 2:31,3.7,12,3.8,13,5.1,13
2013/1/10 2:32,3.5,12,3.7,13,6.4,9
2013/1/10 2:33,3.2,12,3.5,13,1.4,1
2013/1/10 2:34,3,12,3.2,13,2.5,4
2013/1/10 2:35,2.7,12,3,12,2.4,6
2013/1/10 2:36,2.6,12,2.7,12,4.7,13
2013/1/10 2:37,2.5,12,2.6,12,6.1,11
2013/1/10 2:38,2.4,12,2.5,12,6,15
2013/1/10 2:39,2.4,12,2.4,12,9.8,11
2013/1/10 2:40,2.1,13,2.4,12,4.3,13
2013/1/10 2:41,2.1,14,2.1,12,5.6,13
2013/1/10 2:42,2.1,14,2.2,12,3.8,15
2013/1/10 2:43,2.2,14,2.2,12,1.8,8
2013/1/10 2:44,2.2,15,2.2,12,4.2,2
2013/1/10 2:45,2.3,15,2.3,12,3.9,1
2013/1/10 2:46,2.2,15,2.3,12,2.2,15
2013/1/10 2:47,1.9,15,2.1,12,2.6,3
2013/1/10 2:48,1.8,15,1.9,12,4.9,7
2013/1/10 2:49,1.6,15,1.8,13,6,11
2013/1/10 2:50,1.8,15,1.8,15,6.5,12
2013/1/10 2:51,1.8,14,1.9,15,5.6,10
2013/1/10 2:52,1.8,14,1.8,15,2.9,14
2013/1/10 2:53,1.8,14,1.8,15,3,16
2013/1/10 2:54,1.9,13,1.9,15,5.1,11
2013/1/10 2:55,2.2,12,2.2,15,6.7,10
2013/1/10 2:56,2.5,11,2.5,11,6.2,9
2013/1/10 2:57,2.6,11,2.6,11,6.9,15
2013/1/10 2:58,2.8,12,2.8,11,6.7,15
2013/1/10 2:59,2.7,12,2.8,11,2.4,1
2013/1/10 3:00,2.5,11,2.6,11,4.4,8
2013/1/10 3:01,2.4,12,2.5,11,3.6,9
2013/1/10 3:02,2.4,12,2.4,11,2.7,16
2013/1/10 3:03,2.4,11,2.4,11,2,4
2013/1/10 3:04,2.2,10,2.4,11,1.8,10
2013/1/10 3:05,1.9,10,2.2,11,3.1,8
2013/1/10 3:06,1.7,10,1.9,11,2.2,7
2013/1/10 3:07,1.5,8,1.7,11,2.4,8
2013/1/10 3:08,1.3,7,1.4,12,2,6
2013/1/10 3:09,1.3,7,1.3,12,3.7,4
2013/1/10 3:10,1.3,6,1.3,11,3.5,4
2013/1/10 3:11,1.4,6,1.4,12,6.2,7
2013/1/10 3:12,1.4,6,1.4,12,3.6,12
2013/1/10 3:13,1.4,6,1.4,11,3.6,16
2013/1/10 3:14,1.6,5,1.6,10,6.3,16
2013/1/10 3:15,1.6,4,1.6,10,1.8,3
2013/1/10 3:16,1.6,4,1.6,10,2.9,6
2013/1/10 3:17,1.6,4,1.6,6,2,4
2013/1/10 3:18,1.7,3,1.7,3,2.7,3
2013/1/10 3:19,1.7,4,1.7,3,2.6,3
2013/1/10 3:20,1.5,3,1.7,3,1.5,2
2013/1/10 3:21,1.3,2,1.5,3,2.2,2
2013/1/10 3:22,1.3,3,1.3,3,3.9,9
2013/1/10 3:23,1.2,4,1.3,3,1.8,8
2013/1/10 3:24,1.1,5,1.2,3,1.9,6
2013/1/10 3:25,1.1,6,1.1,3,2,8
2013/1/10 3:26,1,6,1.1,3,1,11
2013/1/10 3:27,1.1,6,1.1,3,2.5,16
2013/1/10 3:28,1.1,11,1.1,4,2.9,16
2013/1/10 3:29,1,13,1.1,4,1.9,15
2013/1/10 3:30,1.1,14,1.1,3,2.7,16
2013/1/10 3:31,1.3,16,1.3,3,4.7,3
2013/1/10 3:32,1.2,16,1.3,3,2,2
2013/1/10 3:33,1.4,1,1.4,1,3.5,8
2013/1/10 3:34,1.4,16,1.5,1,3.3,8
2013/1/10 3:35,1.3,16,1.4,1,1.5,4
2013/1/10 3:36,1.4,1,1.4,1,1.3,9
2013/1/10 3:37,1.3,1,1.4,1,1.5,15
2013/1/10 3:38,1.1,2,1.3,1,0.6,15
2013/1/10 3:39,1.2,3,1.2,1,2.5,3
2013/1/10 3:40,1.3,4,1.3,1,3,5
2013/1/10 3:41,1.2,5,1.3,1,2.6,4
2013/1/10 3:42,1.2,5,1.2,1,2.6,4
2013/1/10 3:43,1.2,4,1.2,1,3.9,5
2013/1/10 3:44,1.3,4,1.3,16,3,4
2013/1/10 3:45,1.5,5,1.5,5,3.1,6
2013/1/10 3:46,1.6,5,1.6,5,3.3,5
2013/1/10 3:47,1.9,5,1.9,5,4.3,6
2013/1/10 3:48,2.1,5,2.1,5,3.3,5
2013/1/10 3:49,2.2,5,2.2,5,4.3,6
2013/1/10 3:50,2.3,5,2.3,5,4.9,7
2013/1/10 3:51,2.4,6,2.4,5,4.3,6
2013/1/10 3:52,2.7,6,2.7,6,4.3,6
2013/1/10 3:53,2.9,6,2.9,6,6.5,4
2013/1/10 3:54,3,6,3,6,4.9,6
2013/1/10 3:55,3,6,3,6,4.2,7
2013/1/10 3:56,3.1,6,3.1,6,4.4,7
2013/1/10 3:57,2.9,6,3.1,6,3.5,7
2013/1/10 3:58,2.8,6,2.9,6,2.7,5
2013/1/10 3:59,2.6,6,2.8,6,3.2,6
2013/1/10 4:00,2.4,5,2.6,6,2.9,5
2013/1/10 4:01,2.3,5,2.4,6,2.7,5
2013/1/10 4:02,2.1,5,2.3,6,2,6
2013/1/10 4:03,2,5,2.1,6,3.5,6
2013/1/10 4:04,1.7,5,1.9,6,1.5,5
2013/1/10 4:05,1.5,5,1.7,6,1.5,7
2013/1/10 4:06,1.4,5,1.5,6,2.2,5
2013/1/10 4:07,1.4,5,1.4,6,2.1,9
2013/1/10 4:08,1.4,6,1.4,6,1.9,8
2013/1/10 4:09,1.2,6,1.4,6,0.4,6
2013/1/10 4:10,1.1,6,1.2,5,0.8,3
2013/1/10 4:11,1,6,1.1,5,1.8,4
2013/1/10 4:12,1,6,1,5,1.6,4
2013/1/10 4:13,0.9,6,1,5,1.8,4
2013/1/10 4:14,1,5,1,5,1.6,3
2013/1/10 4:15,1,5,1,5,1.6,3
2013/1/10 4:16,1,4,1,5,1.6,15
2013/1/10 4:17,0.9,4,0.9,5,1.8,3
2013/1/10 4:18,0.9,4,0.9,6,1.4,5
2013/1/10 4:19,1.1,4,1.1,6,2.1,7
2013/1/10 4:20,1.2,4,1.2,4,2,5
2013/1/10 4:21,1.2,4,1.2,4,2.1,6
2013/1/10 4:22,1.2,4,1.2,4,1.6,7
2013/1/10 4:23,1.1,4,1.1,4,1.3,16
2013/1/10 4:24,1,4,1.1,4,1.8,16
2013/1/10 4:25,1.1,4,1.1,4,1.6,15
2013/1/10 4:26,1.1,4,1.1,4,1.9,16
2013/1/10 4:27,1.1,3,1.1,4,3.6,1
2013/1/10 4:28,1.1,3,1.2,4,2.4,1
2013/1/10 4:29,1.1,1,1.1,4,3.1,15
2013/1/10 4:30,1.1,1,1.1,4,1.8,16
2013/1/10 4:31,1,1,1,4,1.8,8
2013/1/10 4:32,1.1,1,1.1,3,2.7,7
2013/1/10 4:33,1.2,1,1.2,3,1.6,8
2013/1/10 4:34,1.1,3,1.2,3,1.5,6
2013/1/10 4:35,1,4,1.1,3,1.3,8
2013/1/10 4:36,1,5,1,3,1.3,8
2013/1/10 4:37,0.9,6,1,3,0.6,13
2013/1/10 4:38,0.8,6,0.8,1,0.9,6
2013/1/10 4:39,0.7,7,0.8,1,1.5,6
2013/1/10 4:40,0.7,7,0.7,1,1,8
2013/1/10 4:41,0.6,6,0.7,1,0.8,1
2013/1/10 4:42,0.6,6,0.6,1,2.5,3
2013/1/10 4:43,0.8,5,0.8,1,3,4
2013/1/10 4:44,0.9,4,0.9,3,3.7,2
2013/1/10 4:45,1.1,4,1.1,4,3.9,15
2013/1/10 4:46,1.2,3,1.2,3,4.4,1
2013/1/10 4:47,1.4,3,1.4,3,3.8,1
2013/1/10 4:48,1.6,3,1.6,3,6.4,15
2013/1/10 4:49,1.9,2,1.9,2,6.1,15
2013/1/10 4:50,1.9,2,1.9,2,1.9,15
2013/1/10 4:51,1.9,2,1.9,2,1.1,10
2013/1/10 4:52,1.9,2,1.9,2,2.9,5
2013/1/10 4:53,1.8,2,1.9,2,3.1,6
2013/1/10 4:54,1.8,3,1.8,2,3.1,9
2013/1/10 4:55,1.8,6,1.8,2,2.7,8
2013/1/10 4:56,1.8,7,1.8,2,3.1,8
2013/1/10 4:57,1.7,8,1.8,2,2.5,7
2013/1/10 4:58,1.6,8,1.7,2,2.4,8
2013/1/10 4:59,1.3,8,1.6,2,1.8,10
2013/1/10 5:00,1.3,8,1.3,2,2,9
2013/1/10 5:01,1.4,8,1.4,2,3.5,9
2013/1/10 5:02,1.5,8,1.5,2,3.1,9
2013/1/10 5:03,1.4,8,1.5,2,2.1,11
2013/1/10 5:04,1.4,9,1.4,3,2.6,15
2013/1/10 5:05,1.4,9,1.4,6,4.3,16
2013/1/10 5:06,1.5,11,1.5,8,4.1,15
2013/1/10 5:07,1.6,12,1.6,8,4.9,15
2013/1/10 5:08,1.7,13,1.7,13,5,15
2013/1/10 5:09,1.7,14,1.7,13,1.5,16
2013/1/10 5:10,1.8,14,1.8,14,2.6,14
2013/1/10 5:11,1.9,14,1.9,14,1.9,11
2013/1/10 5:12,1.8,14,1.9,14,1.5,15
2013/1/10 5:13,1.7,15,1.8,14,0.9,14
2013/1/10 5:14,1.7,14,1.7,14,2.5,12
2013/1/10 5:15,1.6,14,1.7,14,2.1,12
2013/1/10 5:16,1.5,14,1.6,14,1.8,12
2013/1/10 5:17,1.4,13,1.5,14,2.5,13
2013/1/10 5:18,1.3,13,1.4,14,2.4,13
2013/1/10 5:19,1.4,13,1.4,14,2.2,13
2013/1/10 5:20,1.4,13,1.5,14,2.2,13
2013/1/10 5:21,1.4,13,1.4,14,2.4,13
2013/1/10 5:22,1.5,13,1.5,14,1.6,14
2013/1/10 5:23,1.6,13,1.6,14,2.2,12
2013/1/10 5:24,1.7,13,1.7,14,2.6,12
2013/1/10 5:25,1.7,13,1.7,13,2.1,11
2013/1/10 5:26,1.6,13,1.7,13,1.9,12
2013/1/10 5:27,1.6,13,1.6,13,1.8,12
2013/1/10 5:28,1.6,13,1.6,13,1.9,12
2013/1/10 5:29,1.6,13,1.6,13,2.6,12
2013/1/10 5:30,1.7,13,1.7,13,3,12
2013/1/10 5:31,1.6,13,1.7,13,2.4,15
2013/1/10 5:32,1.7,13,1.7,13,3.5,15
2013/1/10 5:33,1.8,13,1.8,13,2.6,15
2013/1/10 5:34,1.8,13,1.8,13,2.9,13
2013/1/10 5:35,1.9,13,1.9,13,2.9,13
2013/1/10 5:36,2,13,2,13,2.2,12
2013/1/10 5:37,2,13,2,13,2,12
2013/1/10 5:38,2,13,2,13,2.9,14
2013/1/10 5:39,2,13,2.1,13,2.7,14
2013/1/10 5:40,2,14,2,13,3.6,15
2013/1/10 5:41,2.1,14,2.1,13,2.7,15
2013/1/10 5:42,2.1,14,2.1,13,2.9,14
2013/1/10 5:43,2.1,13,2.1,13,3,15
2013/1/10 5:44,2.1,13,2.1,13,3.3,13
2013/1/10 5:45,2.1,14,2.1,13,2.9,15
2013/1/10 5:46,2.1,14,2.1,13,2.6,15
2013/1/10 5:47,2.1,14,2.1,13,3.1,15
2013/1/10 5:48,2.2,14,2.2,14,3.7,14
2013/1/10 5:49,2.1,14,2.2,14,2.1,14
2013/1/10 5:50,2,14,2.1,14,2,15
2013/1/10 5:51,2,14,2,14,2.1,14
2013/1/10 5:52,1.9,14,2,14,2.4,13
2013/1/10 5:53,1.9,14,1.9,14,2.6,15
2013/1/10 5:54,1.9,14,1.9,14,2.5,15
2013/1/10 5:55,1.8,14,1.8,14,2.4,16
2013/1/10 5:56,1.7,14,1.8,14,1.6,14
2013/1/10 5:57,1.6,14,1.7,14,1.8,14
2013/1/10 5:58,1.6,14,1.6,14,2.6,15
2013/1/10 5:59,1.6,14,1.6,14,2.7,15
2013/1/10 6:00,1.6,14,1.6,14,2.2,15
2013/1/10 6:01,1.7,14,1.7,14,3.2,15
2013/1/10 6:02,1.7,14,1.7,14,2.5,13
2013/1/10 6:03,1.7,14,1.7,14,2.2,12
2013/1/10 6:04,1.6,14,1.7,14,1.3,14
2013/1/10 6:05,1.5,14,1.6,14,2.1,15
2013/1/10 6:06,1.5,14,1.5,14,1.1,11
2013/1/10 6:07,1.4,14,1.5,14,1,14
2013/1/10 6:08,1.4,14,1.4,14,2.2,16
2013/1/10 6:09,1.3,14,1.4,14,2.4,16
2013/1/10 6:10,1.4,14,1.4,14,2.9,15
2013/1/10 6:11,1.3,14,1.4,14,2.5,16
2013/1/10 6:12,1.3,14,1.3,14,1.9,16
2013/1/10 6:13,1.2,14,1.3,14,0.6,13
2013/1/10 6:14,1.2,14,1.2,14,1.9,12
2013/1/10 6:15,1.3,14,1.3,14,2.5,13
2013/1/10 6:16,1.4,14,1.4,14,3,12
2013/1/10 6:17,1.5,14,1.5,14,2.6,12
2013/1/10 6:18,1.5,14,1.5,14,1.8,13
2013/1/10 6:19,1.6,14,1.6,14,2.5,13
2013/1/10 6:20,1.5,13,1.6,14,2.5,11
2013/1/10 6:21,1.5,13,1.5,14,2.1,16
2013/1/10 6:22,1.5,13,1.5,14,2.1,15
2013/1/10 6:23,1.7,13,1.7,13,3.6,16
2013/1/10 6:24,1.8,14,1.8,13,3.8,16
2013/1/10 6:25,1.8,14,1.8,13,2.2,15
2013/1/10 6:26,1.7,14,1.8,13,2,15
2013/1/10 6:27,1.7,14,1.7,13,1.8,16
2013/1/10 6:28,1.7,14,1.7,13,2,12
2013/1/10 6:29,1.7,14,1.7,13,2.5,12
2013/1/10 6:30,1.6,14,1.7,13,1.6,13
2013/1/10 6:31,1.6,14,1.6,13,1.3,13
2013/1/10 6:32,1.5,14,1.6,13,1.1,12
2013/1/10 6:33,1.3,14,1.5,13,1,16
2013/1/10 6:34,1.1,14,1.3,14,1.1,15
2013/1/10 6:35,1,14,1.1,14,1.8,15
2013/1/10 6:36,1,14,1,14,1.9,16
2013/1/10 6:37,1.1,14,1.1,14,2.2,16
2013/1/10 6:38,1.1,14,1.1,14,1.6,15
2013/1/10 6:39,1,15,1.1,14,1.3,15
2013/1/10 6:40,1,15,1,14,1.9,15
2013/1/10 6:41,1.1,15,1.1,14,2,15
2013/1/10 6:42,1,15,1.1,14,0.6,13
2013/1/10 6:43,1,15,1,14,0.8,16
2013/1/10 6:44,1,16,1,14,1,3
2013/1/10 6:45,1,16,1,14,2.4,11
2013/1/10 6:46,1,15,1,14,2.7,7
2013/1/10 6:47,1.1,15,1.1,14,4.3,15
2013/1/10 6:48,1.2,15,1.2,15,3.5,15
2013/1/10 6:49,1.3,15,1.3,15,2.5,15
2013/1/10 6:50,1.3,15,1.3,15,2.1,15
2013/1/10 6:51,1.3,15,1.3,15,1.6,15
2013/1/10 6:52,1.3,15,1.3,15,1.5,14
2013/1/10 6:53,1.6,15,1.6,15,3.3,15
2013/1/10 6:54,1.7,14,1.7,14,2.5,14
2013/1/10 6:55,1.8,14,1.8,14,3.3,12
2013/1/10 6:56,1.8,14,1.9,14,2.5,13
2013/1/10 6:57,1.6,15,1.8,14,1.8,16
2013/1/10 6:58,1.6,15,1.6,14,3.2,1
2013/1/10 6:59,1.7,15,1.7,14,4.2,16
2013/1/10 7:00,1.7,14,1.7,14,2.4,14
2013/1/10 7:01,1.8,14,1.8,14,2.5,15
2013/1/10 7:02,1.9,14,1.9,14,2.9,13
2013/1/10 7:03,1.8,14,1.9,14,3,15
2013/1/10 7:04,1.7,14,1.8,14,1.8,13
2013/1/10 7:05,1.5,14,1.7,14,2,11
2013/1/10 7:06,1.5,14,1.5,14,0.9,13
2013/1/10 7:07,1.4,14,1.5,14,0.6,2
2013/1/10 7:08,1.2,13,1.4,14,0.8,8
2013/1/10 7:09,1,13,1.2,14,0.8,7
2013/1/10 7:10,0.9,13,1,14,1.4,9
2013/1/10 7:11,0.9,11,0.9,14,1.5,10
2013/1/10 7:12,0.7,10,0.8,14,1,8
2013/1/10 7:13,0.6,10,0.7,14,0.9,11
2013/1/10 7:14,0.6,9,0.6,14,1,11
2013/1/10 7:15,0.5,9,0.6,14,1.5,8
2013/1/10 7:16,0.6,9,0.6,14,1.6,11
2013/1/10 7:17,0.7,9,0.7,14,2.2,10
2013/1/10 7:18,0.7,10,0.7,13,1.3,11
2013/1/10 7:19,0.7,10,0.7,13,0.4,12
2013/1/10 7:20,0.7,10,0.7,13,0.5,10
2013/1/10 7:21,0.6,10,0.6,11,0.8,9
2013/1/10 7:22,0.6,11,0.6,10,0.5,13
2013/1/10 7:23,0.5,11,0.6,9,0.6,13
2013/1/10 7:24,0.5,11,0.5,9,0.1,12
2013/1/10 7:25,0.5,11,0.5,9,1.3,8
2013/1/10 7:26,0.4,11,0.5,9,1.3,8
2013/1/10 7:27,0.3,11,0.4,10,0.5,12
2013/1/10 7:28,0.3,11,0.3,10,0.5,10
2013/1/10 7:29,0.3,11,0.3,10,0.5,12
2013/1/10 7:30,0.3,11,0.3,10,0.1,10
2013/1/10 7:31,0.2,11,0.3,10,0.1,16
2013/1/10 7:32,0.3,12,0.3,11,1.1,16
2013/1/10 7:33,0.3,12,0.3,11,1.3,9
2013/1/10 7:34,0.4,11,0.4,11,1.5,10
2013/1/10 7:35,0.5,11,0.5,11,2,10
2013/1/10 7:36,0.5,12,0.5,11,0.9,11
2013/1/10 7:37,0.5,12,0.5,11,1.3,14
2013/1/10 7:38,0.6,12,0.6,12,1.1,15
2013/1/10 7:39,0.6,13,0.6,12,0.8,14
2013/1/10 7:40,0.6,13,0.6,12,0.8,14
2013/1/10 7:41,0.7,13,0.7,13,1.4,11
2013/1/10 7:42,0.7,12,0.7,13,1.9,12
2013/1/10 7:43,0.9,12,0.9,12,2,12
2013/1/10 7:44,0.9,13,0.9,12,2.4,12
2013/1/10 7:45,1,13,1,13,2.6,12
2013/1/10 7:46,1.2,13,1.2,13,2.7,12
2013/1/10 7:47,1.3,13,1.3,13,2.5,12
2013/1/10 7:48,1.4,12,1.4,12,2.7,12
2013/1/10 7:49,1.6,12,1.6,12,2.7,12
2013/1/10 7:50,1.9,12,1.9,12,3.2,12
2013/1/10 7:51,2,12,2,12,3.1,12
2013/1/10 7:52,2.2,12,2.2,12,3.6,11
2013/1/10 7:53,2.3,12,2.3,12,3.5,11
2013/1/10 7:54,2.3,12,2.3,12,2.7,11
2013/1/10 7:55,2.2,12,2.3,12,2.4,11
2013/1/10 7:56,2.1,12,2.2,12,2.4,10
2013/1/10 7:57,2,12,2.1,12,2,12
2013/1/10 7:58,1.9,12,2,12,2.1,11
2013/1/10 7:59,1.8,12,1.9,12,2.2,13
2013/1/10 8:00,1.7,12,1.8,12,1.8,12
2013/1/10 8:01,1.6,12,1.7,12,2.2,12
2013/1/10 8:02,1.4,11,1.6,12,1.4,12
2013/1/10 8:03,1.2,11,1.4,12,1.4,11
2013/1/10 8:04,1.1,12,1.2,12,2.2,11
2013/1/10 8:05,1.2,11,1.2,12,3.7,11
2013/1/10 8:06,1.3,12,1.3,12,2.7,12
2013/1/10 8:07,1.4,11,1.4,12,3.7,11
2013/1/10 8:08,1.5,11,1.5,12,3.5,10
2013/1/10 8:09,1.5,11,1.5,12,2,14
2013/1/10 8:10,1.6,11,1.6,12,2.7,10
2013/1/10 8:11,1.7,11,1.7,11,3.1,11
2013/1/10 8:12,1.8,11,1.8,11,2.6,10
2013/1/10 8:13,1.8,11,1.8,11,1.8,10
2013/1/10 8:14,1.8,11,1.8,11,2.4,12
2013/1/10 8:15,1.7,11,1.8,11,1.5,11
2013/1/10 8:16,1.7,11,1.7,11,1.4,11
2013/1/10 8:17,1.5,11,1.7,11,0.9,9
2013/1/10 8:18,1.4,11,1.5,11,3,12
2013/1/10 8:19,1.4,11,1.4,11,2.5,9
2013/1/10 8:20,1.3,11,1.4,11,1.8,11
2013/1/10 8:21,1.2,11,1.3,11,1.9,9
2013/1/10 8:22,1.1,11,1.2,11,1.8,12
2013/1/10 8:23,1.1,11,1.1,11,1.3,10
2013/1/10 8:24,1,11,1.1,11,1.8,13
2013/1/10 8:25,1,11,1,11,1.8,10
2013/1/10 8:26,1,11,1,11,1.8,10
2013/1/10 8:27,1.1,11,1.1,11,3.6,9
2013/1/10 8:28,1.1,11,1.1,11,3.3,9
2013/1/10 8:29,1.2,11,1.2,11,3.1,9
2013/1/10 8:30,1.3,10,1.3,11,3.2,9
2013/1/10 8:31,1.5,10,1.5,10,3.5,10
2013/1/10 8:32,1.6,10,1.6,10,3.8,9
2013/1/10 8:33,1.7,10,1.7,10,3.7,9
2013/1/10 8:34,1.9,10,1.9,10,3.8,11
2013/1/10 8:35,2.1,10,2.1,10,4.2,11
2013/1/10 8:36,2.3,10,2.3,10,3.9,9
2013/1/10 8:37,2.4,10,2.4,10,2.9,10
2013/1/10 8:38,2.3,10,2.4,10,3,9
2013/1/10 8:39,2.2,10,2.3,10,1.9,9
2013/1/10 8:40,2,10,2.2,10,1.8,10
2013/1/10 8:41,1.9,10,2.1,10,1.8,9
2013/1/10 8:42,1.9,10,1.9,10,3.2,10
2013/1/10 8:43,1.9,10,2,10,3,11
2013/1/10 8:44,1.8,10,1.9,10,2.4,11
2013/1/10 8:45,1.7,10,1.8,10,2,9
2013/1/10 8:46,1.4,10,1.6,10,1.3,8
2013/1/10 8:47,1.3,10,1.4,10,2.1,10
2013/1/10 8:48,1.3,10,1.3,10,2.6,11
2013/1/10 8:49,1.3,10,1.3,10,1.9,9
2013/1/10 8:50,1.3,10,1.3,10,0.9,6
2013/1/10 8:51,1.3,10,1.3,10,1.9,9
2013/1/10 8:52,1.2,10,1.3,10,2.2,8
2013/1/10 8:53,1.1,10,1.2,10,3.3,8
2013/1/10 8:54,1.1,9,1.1,10,3.1,8
2013/1/10 8:55,1.1,9,1.1,10,2,9
2013/1/10 8:56,1.2,9,1.2,10,1.5,9
2013/1/10 8:57,1.1,8,1.2,10,0.8,8
2013/1/10 8:58,1,8,1.1,10,2,8
2013/1/10 8:59,1,8,1,10,1.4,8
2013/1/10 9:00,1.1,8,1.1,10,2.9,8
2013/1/10 9:01,1.2,8,1.2,10,2.9,9
2013/1/10 9:02,1.2,8,1.2,10,2.5,8
2013/1/10 9:03,1.1,8,1.2,9,2.4,8
2013/1/10 9:04,1,8,1.1,9,1.4,9
2013/1/10 9:05,1,8,1,9,2.2,9
2013/1/10 9:06,1.1,9,1.1,9,2,11
2013/1/10 9:07,1.1,9,1.1,8,0.9,12
2013/1/10 9:08,1.1,9,1.1,8,1.3,7
2013/1/10 9:09,1.2,9,1.2,8,2.5,7
2013/1/10 9:10,1.1,8,1.2,8,2,7
2013/1/10 9:11,1.1,8,1.1,8,2.1,8
2013/1/10 9:12,1.1,8,1.1,8,2,7
2013/1/10 9:13,1.2,8,1.2,9,2.7,6
2013/1/10 9:14,1.2,8,1.2,9,2.9,7
2013/1/10 9:15,1.2,8,1.2,9,1.3,8
2013/1/10 9:16,1.1,7,1.1,9,2,8
2013/1/10 9:17,1.1,7,1.1,9,1.9,7
2013/1/10 9:18,1.1,7,1.1,9,1,8
2013/1/10 9:19,1,7,1.1,9,2.4,8
2013/1/10 9:20,1.1,7,1.1,8,2,8
2013/1/10 9:21,1,8,1.1,8,3.5,9
2013/1/10 9:22,1.1,8,1.1,8,3.7,8
2013/1/10 9:23,1.2,8,1.2,8,4.8,9
2013/1/10 9:24,1.2,8,1.3,8,3.9,9
2013/1/10 9:25,1.3,8,1.3,8,3,8
2013/1/10 9:26,1.3,8,1.3,8,3.3,9
2013/1/10 9:27,1.5,8,1.5,8,3.9,9
2013/1/10 9:28,1.7,8,1.7,8,4.1,8
2013/1/10 9:29,1.7,9,1.7,8,3.1,9
2013/1/10 9:30,1.8,9,1.8,9,3.9,8
2013/1/10 9:31,2,9,2,9,3.3,8
2013/1/10 9:32,2,8,2,9,3.3,8
2013/1/10 9:33,1.9,8,1.9,9,3.2,9
2013/1/10 9:34,1.9,8,1.9,9,3.1,7
2013/1/10 9:35,2,8,2,9,4.4,8
2013/1/10 9:36,2.1,8,2.2,8,4.3,8
2013/1/10 9:37,2.1,8,2.1,8,4.8,9
2013/1/10 9:38,2.2,8,2.2,8,3.8,7
2013/1/10 9:39,2.3,8,2.3,8,5.2,8
2013/1/10 9:40,2.2,8,2.3,8,4.2,8
2013/1/10 9:41,2.1,8,2.2,8,3.8,8
2013/1/10 9:42,2.2,8,2.2,8,3.3,7
2013/1/10 9:43,2.3,8,2.3,8,4.4,8
2013/1/10 9:44,2.3,8,2.3,8,3.2,6
2013/1/10 9:45,2.2,8,2.3,8,2.7,8
2013/1/10 9:46,2.1,7,2.1,8,2.1,4
2013/1/10 9:47,2,7,2,8,3.9,5
2013/1/10 9:48,1.9,7,2,8,2.7,7
2013/1/10 9:49,1.8,7,1.9,8,3.5,8
2013/1/10 9:50,1.8,7,1.8,8,2.5,9
2013/1/10 9:51,1.7,6,1.8,8,2.2,16
2013/1/10 9:52,1.6,6,1.7,8,2.2,16
2013/1/10 9:53,1.4,5,1.6,8,2.9,2
2013/1/10 9:54,1.3,4,1.4,8,1.8,3
2013/1/10 9:55,1.3,4,1.4,8,1.6,9
2013/1/10 9:56,1.3,5,1.4,7,1.4,7
2013/1/10 9:57,1.2,5,1.3,7,1.8,8
2013/1/10 9:58,1.2,5,1.2,7,1.9,6
2013/1/10 9:59,1.1,4,1.2,7,1.4,6
2013/1/10 10:00,1,4,1,7,1.8,3
2013/1/10 10:01,1.1,4,1.1,6,3.7,2
2013/1/10 10:02,1.1,4,1.1,6,3.1,1
2013/1/10 10:03,1.1,4,1.1,5,2.9,5
2013/1/10 10:04,1.2,4,1.2,4,3,4
2013/1/10 10:05,1.3,4,1.3,4,3.2,9
2013/1/10 10:06,1.4,4,1.4,4,4.1,8
2013/1/10 10:07,1.4,4,1.4,4,2.4,8
2013/1/10 10:08,1.3,4,1.4,4,1.5,12
2013/1/10 10:09,1.4,6,1.4,4,2.5,9
2013/1/10 10:10,1.7,7,1.7,7,5,10
2013/1/10 10:11,1.6,8,1.7,7,4.2,8
2013/1/10 10:12,1.8,9,1.8,9,4.9,10
2013/1/10 10:13,1.9,9,1.9,9,5,10
2013/1/10 10:14,2,10,2,10,4.8,11
2013/1/10 10:15,2,10,2,10,2.1,11
2013/1/10 10:16,1.9,11,2,10,2.6,12
2013/1/10 10:17,1.9,11,1.9,10,3.1,8
2013/1/10 10:18,2,11,2,10,3.9,10
2013/1/10 10:19,2.1,11,2.1,11,3.1,9
2013/1/10 10:20,1.9,11,2.1,11,2.1,13
2013/1/10 10:21,1.8,11,1.9,11,1.6,15
2013/1/10 10:22,1.7,12,1.8,11,4.3,1
2013/1/10 10:23,1.6,12,1.7,11,4.9,9
2013/1/10 10:24,1.7,11,1.7,11,5.5,9
2013/1/10 10:25,1.7,11,1.8,11,4.2,11
2013/1/10 10:26,1.7,11,1.7,11,5.7,9
2013/1/10 10:27,1.7,11,1.7,11,3.1,12
2013/1/10 10:28,1.8,11,1.8,11,5.7,10
2013/1/10 10:29,1.9,12,1.9,11,4.7,12
2013/1/10 10:30,1.9,11,1.9,11,2.9,12
2013/1/10 10:31,2,11,2,11,7.2,10
2013/1/10 10:32,2.2,11,2.2,11,6.3,10
2013/1/10 10:33,2.3,11,2.3,11,6.9,8
2013/1/10 10:34,2.3,11,2.3,11,5.2,9
2013/1/10 10:35,2.3,10,2.3,11,4.1,8
2013/1/10 10:36,2.4,10,2.5,10,4.7,9
2013/1/10 10:37,2.5,10,2.5,10,3,10
2013/1/10 10:38,2.3,10,2.5,10,2.1,9
2013/1/10 10:39,2.3,10,2.3,10,4.1,10
2013/1/10 10:40,2.3,9,2.3,10,5.1,9
2013/1/10 10:41,2.5,10,2.5,10,6.8,11
2013/1/10 10:42,2.4,10,2.5,10,7,10
2013/1/10 10:43,2.5,10,2.6,10,6.9,10
2013/1/10 10:44,2.7,10,2.7,10,7.9,10
2013/1/10 10:45,2.7,10,2.7,10,7.7,10
2013/1/10 10:46,2.8,10,2.8,10,6.4,10
2013/1/10 10:47,2.9,10,2.9,10,7.7,11
2013/1/10 10:48,3.4,10,3.4,10,8.7,10
2013/1/10 10:49,3.5,10,3.5,10,4.9,10
2013/1/10 10:50,3.7,10,3.7,10,6.5,9
2013/1/10 10:51,3.7,10,3.8,10,8.5,11
2013/1/10 10:52,4,10,4,10,6,11
2013/1/10 10:53,3.9,10,3.9,10,6.3,10
2013/1/10 10:54,3.9,10,4,10,5.6,9
2013/1/10 10:55,3.8,10,3.9,10,6.5,10
2013/1/10 10:56,3.6,10,3.8,10,6.4,11
2013/1/10 10:57,3.5,10,3.6,10,3.6,13
2013/1/10 10:58,3.2,11,3.5,10,5.5,11
2013/1/10 10:59,3.1,11,3.2,10,3.9,13
2013/1/10 11:00,3.4,11,3.4,10,8.7,10
2013/1/10 11:01,3.4,11,3.4,10,8.2,9
2013/1/10 11:02,3.4,11,3.5,10,7.1,9
2013/1/10 11:03,3.5,11,3.5,10,6.4,10
2013/1/10 11:04,3.4,11,3.5,10,5.5,11
2013/1/10 11:05,3.4,11,3.4,10,4.3,10
2013/1/10 11:06,3.4,11,3.4,10,5.6,9
2013/1/10 11:07,3.5,10,3.5,11,5.2,9
2013/1/10 11:08,3.4,10,3.5,11,4.9,9
2013/1/10 11:09,3.4,10,3.5,11,5.4,10
2013/1/10 11:10,3.1,10,3.4,11,4.8,9